This is the latest recevied weather packets stored in our database for station/object N4ASP-13. If no packets are shown the sender has not sent any weather packets the latest 10 day(s).
| Time | Temp. | Humidity | Pressure | Rain* | Wind** | Luminosity | Snow |
|---|---|---|---|---|---|---|---|
| 1778160366 | 16.11° C | 96% | 1010.1 hPa | 0.25 mm | - | 162 W/m² | - |
| 1778160306 | 16.11° C | 96% | 1010.1 hPa | 0.25 mm | - | 146 W/m² | - |
| 1778160238 | 16.11° C | 96% | 1010 hPa | 0.25 mm | - | 141 W/m² | - |
| 1778160178 | 16.11° C | 96% | 1010.1 hPa | 0.25 mm | - | 139 W/m² | - |
| 1778160118 | 16.11° C | 96% | 1010.1 hPa | 0.25 mm | - | 137 W/m² | - |
| 1778160056 | 16.11° C | 96% | 1010.2 hPa | 0.25 mm | - | 134 W/m² | - |
| 1778159994 | 16.11° C | 96% | 1010.2 hPa | 0.25 mm | - | 135 W/m² | - |
| 1778159929 | 16.11° C | 96% | 1010.4 hPa | 0.51 mm | - | 146 W/m² | - |
| 1778159868 | 16.11° C | 96% | 1010.4 hPa | 0.51 mm | - | 160 W/m² | - |
| 1778159807 | 16.11° C | 96% | 1010.2 hPa | 0.51 mm | - | 174 W/m² | - |
| 1778159749 | 16.11° C | 96% | 1010.4 hPa | 0.51 mm | - | 185 W/m² | - |
| 1778159686 | 16.11° C | 96% | 1010.2 hPa | 0.51 mm | - | 183 W/m² | - |
| 1778159627 | 16.11° C | 96% | 1010.2 hPa | 0.51 mm | - | 181 W/m² | - |
| 1778159564 | 16.11° C | 96% | 1010.2 hPa | 0.51 mm | - | 179 W/m² | - |
| 1778159503 | 16.11° C | 96% | 1010.4 hPa | 0.51 mm | - | 178 W/m² | - |
| 1778159442 | 16.11° C | 96% | 1010.2 hPa | 0.51 mm | - | 176 W/m² | - |
| 1778159315 | 16.11° C | 96% | 1010.1 hPa | 0.76 mm | - | 183 W/m² | - |
| 1778159253 | 16.11° C | 96% | 1010 hPa | 0.76 mm | - | 190 W/m² | - |
| 1778159191 | 16.11° C | 96% | 1010 hPa | 0.76 mm | - | 209 W/m² | - |
| 1778159133 | 16.11° C | 96% | 1009.8 hPa | 0.76 mm | - | 218 W/m² | - |
| 1778159070 | 16.11° C | 96% | 1009.9 hPa | 0.76 mm | - | 227 W/m² | - |
| 1778159007 | 16.11° C | 96% | 1009.9 hPa | 0.76 mm | - | 239 W/m² | - |
| 1778158948 | 16.11° C | 96% | 1009.9 hPa | 0.76 mm | - | 241 W/m² | - |
| 1778158885 | 15.56° C | 96% | 1010 hPa | 0.76 mm | - | 246 W/m² | - |
| 1778158827 | 15.56° C | 96% | 1010 hPa | 0.76 mm | - | 234 W/m² | - |
* Rain latest hour (hover to see other rain measurements)
** Current wind speed in m/s (hover to see current wind gust speed)